Regional Weather Roundup
Issued by NWS

Home | Current Version | Previous Version | Text Only | Print | Product List | Glossary Off
Versions: 1 2 3 4 5 6 7 8 9 10 11 12 13 14 15 16 17 18 19 20 21 22 23 24 25 26 27 28 29 30 31 32 33 34 35 36 37 38 39 40 41 42 43 44 45 46 47 48 49 50

000
ASUS43 KMKX 252011
RWRWI

WISCONSIN REGIONAL WEATHER ROUNDUP
NATIONAL WEATHER SERVICE MILWAUKEE/SULLIVAN WI
200 PM CST THU DEC 25 2014

NOTE: "FAIR" INDICATES FEW OR NO CLOUDS BELOW 12,000 FEET WITH NO
SIGNIFICANT WEATHER AND/OR OBSTRUCTIONS TO VISIBILITY.

WIZ001-002-006>008-014>016-023>028-252100-
NORTHWEST WISCONSIN

CITY           SKY/WX    TMP DP  RH WIND       PRES   REMARKS
SUPERIOR ARPT  CLOUDY    33  29  85 SW3       29.74S
ASHLAND        CLOUDY    33  29  85 SW6       29.75R WCI  28
HAYWARD        CLOUDY    31  26  82 SW12      29.75R WCI  22
SIREN          CLOUDY    32  29  88 SW7       29.76R WCI  26
CUMBERLAND     LGT SNOW  32  30  93 S6        29.75S WCI  26
RICE LAKE      LGT SNOW  32  29  90 S6        29.78R WCI  26
CHETEK         CLOUDY    32  29  88 S6        29.77R WCI  26
LADYSMITH      LGT SNOW  32  29  90 S7        29.78R WCI  26
EAU CLAIRE     CLOUDY    33  28  81 S3        29.78R
MENOMONIE      CLOUDY    34  30  84 SE5       29.78S WCI  30
NEW RICHMOND   LGT SNOW  32  31  96 S6        29.76R WCI  27
OSCEOLA        LGT SNOW  32  32 100 S3        29.79R
$$

WIZ003>005-009-010-017-018-252100-
NORTH CENTRAL WISCONSIN

CITY           SKY/WX    TMP DP  RH WIND       PRES   REMARKS
MANITOWISH WTR CLOUDY    30  29  93 SW9       29.73R WCI  22
ARBOR VITAE    CLOUDY    32  28  86 SW12      29.74R WCI  23
WOODRUFF       CLOUDY    32  28  86 SW12      29.74R WCI  23
RHINELANDER    CLOUDY    30  26  85 SW13      29.75R WCI  20
EAGLE RIVER    CLOUDY    31  29  92 SW8       29.73R WCI  24
LAND O LAKES   CLOUDY    32  29  90 SW12      29.73R WCI  23
PHILLIPS       CLOUDY    30  27  86 SW9       29.74R WCI  22
TOMAHAWK       CLOUDY    31  27  86 CALM      29.77S
MEDFORD        LGT SNOW  30  28  89 SW7       29.78R WCI  24
MERRILL        LGT SNOW  32  29  88 SW10      29.78S WCI  23
$$

WIZ029-030-035-036-043>047-252100-
CENTRAL WISCONSIN

CITY           SKY/WX    TMP DP  RH WIND       PRES   REMARKS
WAUSAU         CLOUDY    32  27  81 SW9       29.79R WCI  24
MOSINEE        CLOUDY    32  30  93 SW12      29.80S WCI  23
MARSHFIELD     CLOUDY    34  28  79 SW9       29.79R WCI  27
STEVENS POINT  CLOUDY    32  27  82 S12       29.81S WCI  23
WAUPACA        CLOUDY    37  30  76 S9        29.84R WCI  30
WAUTOMA        PTSUNNY   37  30  76 SW9       29.84R WCI  30
WISC RAPIDS    CLOUDY    34  27  75 S10       29.83R WCI  26
CAMP DOUGLAS   PTSUNNY   36  35  94 S5        29.81S WCI  32
$$

WIZ011>013-019>022-031-037>040-048>050-252100-
NORTHEAST WISCONSIN

CITY           SKY/WX    TMP DP  RH WIND       PRES   REMARKS
ANTIGO         CLOUDY    30  27  89 SW10      29.78S WCI  21
SHAWANO        PTSUNNY   36  29  75 SW7       29.82F WCI  31
OCONTO         CLOUDY    35  30  82 SW12      29.83R WCI  27
STURGEON BAY   CLOUDY    34  27  75 SW15      29.84R WCI  24
GREEN BAY      PTSUNNY   36  30  79 SW10      29.84R WCI  28
MANITOWOC      CLOUDY    37  31  78 SW10      29.86S WCI  30
APPLETON       PTSUNNY   36  28  75 SW13      29.84R WCI  27
CLINTONVILLE   PTSUNNY   34  30  86 SW8       29.82S WCI  27
OSHKOSH        CLOUDY    36  29  75 SW10      29.85S WCI  28
$$

WIZ032>034-041-042-053>061-252100-
SOUTHWEST WISCONSIN

CITY           SKY/WX    TMP DP  RH WIND       PRES   REMARKS
LA CROSSE      CLOUDY    39  30  70 S8        29.80S WCI  33
SPARTA         CLOUDY    37  30  73 S5        29.82S WCI  34
VIROQUA        CLOUDY    36  33  89 S7        29.78F WCI  30
BOSCOBEL       CLOUDY    45  30  55 S7        29.82F
PRAIRIE DU CHI PTSUNNY   42  28  58 SE6       29.81S
PLATTEVILLE    MOSUNNY   42  33  69 S10       29.85S
$$

WIZ056-057-062-063-064-067-068-252100-
SOUTH CENTRAL WISCONSIN

CITY           SKY/WX    TMP DP  RH WIND       PRES   REMARKS
REEDSBURG      CLOUDY    38  31  77 S7        29.83S WCI  32
BARABOO/DELLS  CLOUDY    37  30  76 S10       29.82S WCI  30
LONE ROCK      CLOUDY    45  31  58 S9        29.84F
MINERAL POINT  PTSUNNY   43  32  65 S16G22    29.83S
MADISON        PTSUNNY   40  31  70 S9        29.86S WCI  34
MIDDLETON      PTSUNNY   41  31  67 SW12      29.85F
WATERTOWN      MOSUNNY   38  32  76 SW14      29.88R WCI  30
MONROE         MOSUNNY   43  34  70 S16       29.86S
JANESVILLE     MOSUNNY   45  32  61 S13       29.89R
$$

WIZ051-052-058>065-066-070>072-252100-
SOUTHEAST WISCONSIN

CITY           SKY/WX    TMP DP  RH WIND       PRES   REMARKS
MILWAUKEE      PTSUNNY   39  29  67 SW16      29.91R WCI  30
WAUKESHA       PTSUNNY   36  28  75 SW10      29.90R WCI  28
MILWAUKEE/TIMM SUNNY     39  27  60 SW12G22   29.90R WCI  32
RACINE         MOSUNNY   40  30  67 SW15G22   29.93R WCI  32
BURLINGTON     MOSUNNY   39  31  73 S14       29.90F WCI  31
KENOSHA        MOSUNNY   40  31  70 SW16      29.92S WCI  31
FOND DU LAC    CLOUDY    37  29  72 S16G23    29.85S WCI  28
SHEBOYGAN      CLOUDY    37  30  75 SW10      29.87R WCI  30
WEST BEND      CLOUDY    37  28  70 SW13      29.88R WCI  29
JUNEAU         MOSUNNY   37  31  78 S14       29.87S WCI  29
$$

LSZ147-162-252100-
LAKE SUPERIOR

STATION/POSITION TIME  TEMP    WIND        PRES    WAVE
                       AIR SEA DIR/SP/G            HT/PER
                 (UTC) (F)     (DEG/KT/KT) (MB)    (FT/S)
DEVILS ISLAND    2000   34     240/ 14/ 19 1007.4R
PORT WING        1900   34     230/  7/ 13 1007.1R
SAXON HARBOR     1800   35     210/  5/ 10 1006.1R
$$

LMZ867-665-643>646-252100-
LAKE MICHIGAN

STATION/POSITION TIME  TEMP    WIND        PRES    WAVE
                       AIR SEA DIR/SP/G            HT/PER
                 (UTC) (F)     (DEG/KT/KT) (MB)    (FT/S)
CHAMBERS ISLAND  1900   35     200/  8/ 14 1008.8S
NORTHPORT PIER   2000   35     240/  6/ 20 1009.8R
SISTER BAY       1913          230/ 18/ 22   N/A
ALGOMA LAKESHORE 1945          250/ 15/ 19   N/A
KEWAUNEE LAKESHO 1900   35     230/ 10/ 17 1009.6R
SHEBOYGAN LAKESH 2000   37 37  210/ 10/ 12 1012.7R
PORT WASHINGTON  1900   38     250/ 11/ 15 1012.5R
MILWAUKEE LAKESH 1900   38     240/ 18/ 22   N/A
KENOSHA   LAKESH 2000   40     210/ 10/ 18 1013.2F
$$

TC  - TEMPERATURE IN CELSIUS
VSB - VISIBILITY IN STATUTE MILES
WCI - WIND CHILL INDEX
HX  - HEAT INDEX



USA.gov is the U.S. government's official web portal to all federal, state and local government web resources and services.